Powrót do katalogu

SL-8 DEB

AktywnyLEO
NORAD 38666·DEBRIS·🇷🇺 Russia

Wystrzelony Apr 23, 1971 z Plesetsk Cosmodrome

Loading…

Następne Przeloty (najbliższe 24 godziny)

TLE

ŚwieżeSource: Space-Track

Epoka: Sep 13, 2026, 11:38 UTC

1 38666U 71035F   26256.48487909  .00000125  00000-0  49937-4 0  9999
2 38666  74.0480 163.5038 0028369 272.4564  87.3342 14.37863051626074

Śledź SL-8 DEB w czasie rzeczywistym z AllMySat

Download on the App Store